Temp
19 20 20 20 17 16 18 20 23 21 24 25 25 25 23 23 23 20 19 19 18 18 17 17 16 15 15 15 14 14 14 13 11 11 12 12 12 11 11 11 11 11 11 11 12 11 11 11 11
19 20 20 20 16 17 17 21 22 23 24 25 26 25 24 21 22 21 20 18 18 18 17 17 16 15 15 14 14 14 14 13 12 12 12 12 12 11 11 11 11 11 11 12 13 11 10 10 10
20 19 19 15 15 17 18 21 21 23 25 26 25 25 24 22 21 22 21 20 18 17 16 16 16 15 14 14 14 14 13 12 12 12 12 12 12 11 11 11 12 12 12 13 13 12 10 10 10
19 19 20 16 17 18 21 21 22 23 25 25 26 22 22 22 22 21 21 20 18 16 16 16 15 15 15 14 14 13 13 12 11 11 12 12 11 11 11 12 12 12 13 14 13 13 14 12 11
19 19 15 17 18 19 21 24 25 22 25 25 25 23 21 22 22 22 21 20 18 16 16 15 15 15 14 14 13 13 13 12 12 11 11 11 11 11 10 11 12 12 13 14 14 14 13 14 13
18 18 14 15 17 19 21 25 26 23 26 25 25 22 21 21 22 23 22 20 18 17 16 16 15 15 14 13 13 13 13 11 11 11 12 12 12 12 11 12 12 12 12 13 13 13 13 13 13
17 14 15 16 17 18 21 25 23 23 25 25 26 21 20 20 22 22 21 19 17 17 16 16 16 15 15 14 13 13 13 11 11 11 13 13 13 13 14 12 12 11 11 12 12 13 13 14 14
19 15 17 16 17 18 22 25 25 25 24 25 25 21 19 22 22 22 21 19 17 17 17 17 17 16 15 15 15 15 14 13 13 14 15 14 14 15 14 13 11 11 11 11 12 12 13 14 14
18 14 14 17 19 20 22 21 24 24 25 25 24 24 25 24 22 21 20 19 18 18 18 18 17 17 16 16 16 16 16 16 16 15 15 15 15 15 14 13 13 12 12 12 12 12 13 13 14
17 13 15 18 18 18 21 21 22 23 23 24 23 23 23 23 22 22 22 22 21 20 19 18 17 17 16 17 16 16 16 16 16 16 16 16 16 15 14 14 14 14 14 13 12 13 13 14 14
17 15 17 18 20 20 20 22 22 22 22 24 24 24 23 22 22 22 22 22 22 22 21 19 18 17 16 16 17 17 17 17 17 16 16 16 15 15 16 15 15 14 13 14 14 14 14 14 14
16 18 19 20 21 20 20 21 21 22 23 24 24 24 24 23 23 23 23 23 23 22 21 20 18 17 16 16 17 17 17 17 17 17 17 17 16 16 16 16 15 15 14 15 15 15 14 15 14
16 17 19 20 21 21 21 21 20 21 24 24 24 24 24 23 23 23 23 22 21 21 20 21 20 19 17 17 17 18 18 18 18 17 17 17 16 16 16 16 15 16 17 16 16 16 15 15 15
19 19 19 20 20 20 20 20 20 22 23 24 23 23 24 23 23 23 22 22 21 21 21 20 20 19 18 17 18 18 17 18 17 17 17 17 17 17 16 16 16 16 17 16 16 16 16 15 14
19 16 16 18 20 19 21 19 19 23 23 23 24 23 23 24 23 23 24 23 23 22 21 20 20 19 18 18 18 18 17 17 18 18 17 18 17 17 17 17 17 17 16 16 15 15 15 14 13
17 17 15 17 19 20 21 17 19 23 22 23 24 24 24 23 23 22 22 22 22 22 21 20 20 20 19 19 19 18 17 17 18 19 19 19 18 18 17 17 18 17 16 15 15 15 15 14 14
15 14 15 16 18 19 19 18 19 23 23 23 24 24 22 21 21 21 21 21 21 21 21 21 20 20 20 20 19 18 18 18 18 18 19 19 19 19 18 18 18 17 15 15 15 15 14 14 13
14 14 15 15 20 19 18 17 17 21 21 21 20 21 20 20 19 20 21 21 21 21 21 20 20 20 19 19 19 18 17 18 18 18 19 19 19 18 17 16 16 15 13 14 13 13 13 13 13
15 16 16 19 19 20 18 17 17 20 21 19 19 19 19 19 19 20 21 21 20 21 20 20 20 19 19 19 18 18 18 18 18 18 18 17 16 16 15 15 15 15 14 14 14 13 13 13 12
16 16 16 19 19 18 18 18 20 20 18 18 19 19 18 18 18 18 19 20 20 20 20 20 19 19 19 18 19 18 18 18 17 17 16 16 15 15 15 15 15 15 14 13 13 13 13 12 11
17 18 17 18 17 18 18 16 19 18 18 19 19 18 18 17 17 18 19 19 20 20 20 20 19 19 18 18 18 17 17 17 17 17 16 15 15 14 14 14 14 13 13 13 12 12 12 11 11
17 18 19 18 16 15 16 15 17 16 16 15 18 18 18 17 17 17 18 18 18 18 18 18 18 18 18 18 17 16 16 15 15 15 15 14 14 14 14 14 14 14 13 13 12 12 11 11 11
17 18 18 18 16 15 17 15 15 15 15 15 15 17 17 17 17 16 16 17 17 17 17 17 17 18 18 17 17 16 16 15 15 14 14 14 13 13 13 13 14 14 13 13 13 12 12 11 11
17 17 17 16 14 14 15 15 16 16 15 14 15 17 17 17 16 16 15 16 16 16 16 16 16 16 16 15 15 15 15 14 14 14 14 13 13 13 13 13 13 13 13 13 13 13 12 12 11
16 14 13 14 13 13 17 16 15 17 16 16 14 16 17 17 16 16 16 15 15 15 15 15 15 15 14 14 14 13 13 13 13 13 13 13 13 13 13 12 12 13 13 12 12 12 12 12 12
14 14 13 16 14 15 17 15 17 17 17 18 18 17 16 16 15 15 15 14 14 13 13 13 13 13 13 13 13 13 13 13 12 12 11 11 11 12 12 12 12 12 12 12 12 12 12 12 12
16 15 15 15 16 14 15 18 18 14 14 15 16 16 16 16 15 15 14 13 13 13 12 12 12 12 12 12 12 12 12 12 12 11 11 11 11 11 11 11 11 11 11 12 11 11 11 11 11
16 16 15 13 16 16 15 18 16 15 14 14 13 15 16 15 15 14 13 13 13 12 12 12 11 11 11 11 11 11 11 11 11 10 10 10 10 10 10 10 10 10 10 10 10 11 11 11 11
14 15 15 14 13 14 13 15 15 16 14 14 13 16 16 15 14 14 13 12 12 12 11 11 11 11 11 11 11 11 10 10 10 10 9 9 9 9 9 9 9 9 9 9 9 9 9 9 10
15 16 14 13 15 12 11 13 16 14 13 15 16 16 15 15 14 13 12 12 11 11 11 11 11 11 10 10 9 9 9 9 9 9 8 8 8 8 8 8 8 7 7 8 8 8 8 8 8
Height
1530 1528 1527 1526 1537 1537 1540 1527 1515 1517 1513 1509 1508 1506 1511 1513 1514 1526 1514 1512 1513 1514 1516 1517 1519 1520 1520 1521 1522 1522 1522 1522 1521 1522 1523 1523 1523 1523 1522 1522 1521 1521 1521 1519 1518 1520 1521 1521 1523
1529 1527 1527 1527 1541 1548 1540 1517 1520 1513 1511 1508 1506 1508 1510 1514 1513 1512 1513 1513 1512 1514 1515 1516 1518 1519 1520 1520 1521 1521 1521 1521 1521 1522 1523 1523 1523 1522 1522 1521 1520 1520 1519 1518 1518 1518 1520 1520 1521
1529 1527 1529 1531 1538 1543 1535 1516 1515 1510 1512 1507 1506 1508 1510 1512 1511 1511 1512 1512 1510 1513 1515 1516 1517 1518 1519 1519 1520 1520 1519 1520 1521 1522 1522 1523 1522 1522 1521 1520 1519 1519 1518 1518 1518 1518 1519 1519 1519
1529 1529 1530 1535 1536 1526 1519 1514 1514 1512 1510 1507 1505 1509 1511 1510 1510 1510 1510 1511 1511 1513 1514 1516 1517 1517 1518 1518 1519 1519 1519 1520 1520 1521 1521 1522 1522 1521 1521 1520 1519 1518 1518 1518 1518 1518 1518 1517 1517
1530 1530 1536 1537 1531 1520 1513 1509 1505 1510 1506 1504 1505 1508 1509 1509 1510 1509 1511 1510 1511 1512 1513 1514 1515 1516 1517 1517 1518 1518 1518 1518 1519 1519 1519 1520 1521 1520 1519 1519 1518 1518 1518 1518 1517 1517 1517 1517 1517
1531 1532 1545 1546 1532 1518 1512 1507 1503 1506 1503 1504 1505 1507 1510 1509 1509 1509 1509 1509 1510 1510 1512 1513 1514 1514 1515 1516 1516 1517 1516 1517 1518 1517 1517 1518 1518 1518 1518 1517 1517 1517 1517 1517 1516 1516 1516 1516 1517
1532 1538 1543 1538 1534 1522 1507 1503 1501 1503 1499 1503 1503 1507 1510 1508 1508 1508 1508 1509 1510 1510 1511 1512 1512 1512 1513 1514 1514 1514 1515 1516 1516 1515 1516 1516 1516 1517 1516 1516 1515 1515 1515 1516 1515 1515 1515 1515 1515
1532 1533 1536 1533 1532 1525 1509 1500 1505 1496 1500 1502 1503 1505 1507 1506 1507 1508 1508 1509 1510 1509 1508 1509 1510 1510 1511 1511 1511 1512 1512 1513 1513 1514 1515 1515 1515 1514 1514 1514 1514 1514 1514 1514 1514 1513 1513 1513 1513
1531 1539 1543 1532 1524 1519 1512 1508 1505 1504 1501 1502 1503 1503 1503 1505 1506 1507 1507 1507 1508 1508 1506 1506 1507 1508 1508 1509 1510 1510 1510 1511 1511 1512 1512 1513 1513 1513 1513 1513 1513 1513 1512 1512 1512 1511 1511 1511 1511
1529 1538 1533 1521 1519 1519 1516 1511 1508 1507 1503 1503 1502 1503 1503 1504 1504 1504 1504 1504 1505 1504 1504 1503 1504 1506 1507 1508 1508 1508 1509 1509 1510 1510 1511 1511 1512 1511 1511 1511 1511 1511 1510 1510 1509 1509 1508 1508 1508
1525 1530 1522 1516 1517 1517 1513 1508 1507 1503 1503 1502 1501 1499 1501 1503 1502 1503 1503 1502 1502 1502 1501 1503 1503 1503 1504 1503 1505 1506 1507 1507 1508 1509 1509 1510 1510 1509 1509 1509 1509 1509 1508 1507 1506 1505 1504 1505 1505
1525 1520 1518 1514 1512 1514 1511 1507 1505 1502 1501 1501 1500 1499 1499 1500 1500 1499 1499 1499 1498 1498 1500 1501 1501 1501 1501 1501 1502 1503 1505 1506 1507 1507 1508 1508 1508 1508 1507 1506 1507 1506 1505 1503 1502 1502 1501 1501 1501
1521 1517 1514 1512 1510 1509 1509 1506 1505 1500 1498 1498 1498 1497 1498 1499 1498 1497 1496 1496 1497 1497 1498 1498 1498 1498 1499 1500 1500 1501 1502 1504 1505 1505 1506 1506 1506 1506 1505 1505 1504 1502 1501 1500 1499 1499 1498 1497 1497
1515 1513 1511 1509 1507 1507 1506 1504 1503 1498 1496 1495 1496 1496 1496 1495 1494 1494 1494 1494 1494 1494 1495 1496 1496 1497 1497 1497 1498 1498 1500 1501 1501 1502 1502 1502 1502 1502 1502 1501 1499 1498 1497 1496 1495 1495 1494 1493 1493
1511 1514 1508 1505 1504 1503 1503 1504 1499 1492 1495 1495 1494 1494 1493 1492 1492 1490 1489 1489 1489 1489 1490 1492 1493 1494 1494 1495 1495 1496 1497 1498 1498 1498 1499 1499 1499 1498 1498 1497 1496 1494 1493 1493 1492 1490 1489 1488 1488
1512 1510 1517 1499 1499 1498 1502 1512 1493 1490 1488 1491 1490 1490 1490 1490 1489 1488 1488 1488 1487 1487 1487 1488 1488 1490 1490 1491 1492 1493 1493 1494 1494 1495 1495 1495 1495 1495 1493 1492 1491 1490 1489 1489 1488 1487 1485 1484 1483
1515 1525 1517 1507 1492 1495 1499 1503 1490 1490 1490 1488 1488 1488 1489 1488 1487 1486 1485 1484 1484 1484 1485 1485 1485 1485 1486 1487 1487 1488 1489 1490 1490 1491 1491 1491 1491 1490 1488 1487 1486 1486 1485 1484 1483 1481 1480 1478 1478
1523 1519 1512 1509 1490 1491 1497 1499 1490 1488 1488 1486 1487 1487 1486 1485 1486 1486 1484 1483 1482 1480 1480 1482 1483 1481 1482 1483 1485 1486 1486 1486 1486 1486 1486 1486 1486 1485 1484 1483 1483 1482 1483 1480 1480 1478 1477 1475 1473
1507 1509 1509 1495 1486 1490 1496 1498 1490 1486 1485 1486 1487 1486 1486 1485 1486 1484 1482 1480 1478 1477 1478 1478 1479 1479 1479 1479 1481 1482 1482 1483 1483 1484 1484 1484 1483 1482 1481 1479 1478 1476 1475 1474 1473 1472 1471 1468 1467
1507 1507 1505 1492 1486 1492 1495 1495 1486 1484 1485 1486 1487 1487 1487 1486 1485 1485 1483 1481 1478 1477 1476 1476 1476 1476 1476 1477 1478 1478 1479 1479 1480 1481 1480 1479 1478 1477 1475 1473 1470 1469 1468 1467 1466 1465 1463 1461 1461
1501 1501 1502 1501 1493 1489 1493 1500 1489 1488 1487 1488 1488 1488 1489 1488 1487 1486 1484 1481 1480 1478 1477 1476 1474 1475 1475 1476 1477 1478 1478 1478 1477 1476 1475 1474 1473 1471 1470 1468 1466 1464 1462 1460 1459 1459 1458 1456 1455
1502 1495 1493 1496 1504 1516 1495 1519 1495 1491 1490 1489 1488 1489 1490 1489 1488 1486 1485 1483 1482 1481 1480 1478 1476 1474 1475 1475 1475 1476 1477 1476 1475 1474 1472 1471 1469 1466 1465 1463 1461 1459 1457 1455 1453 1452 1449 1449 1446
1495 1492 1494 1496 1504 1508 1499 1510 1498 1492 1495 1491 1488 1489 1489 1489 1488 1487 1486 1485 1484 1482 1481 1479 1478 1476 1475 1475 1474 1474 1473 1472 1470 1469 1467 1465 1464 1462 1459 1457 1455 1453 1452 1450 1448 1446 1443 1441 1438
1490 1494 1497 1500 1508 1521 1501 1503 1499 1491 1486 1488 1486 1487 1488 1488 1488 1488 1488 1487 1486 1485 1483 1481 1479 1477 1476 1475 1474 1472 1471 1469 1467 1465 1463 1461 1459 1457 1455 1452 1450 1448 1446 1444 1442 1439 1437 1434 1432
1491 1504 1520 1521 1524 1521 1490 1500 1489 1476 1474 1474 1479 1484 1486 1488 1489 1489 1489 1488 1487 1486 1485 1483 1481 1478 1477 1476 1474 1473 1471 1469 1467 1464 1462 1459 1456 1453 1451 1449 1446 1444 1441 1437 1434 1432 1429 1427 1424
1494 1501 1514 1511 1519 1509 1488 1501 1479 1461 1466 1472 1478 1483 1486 1487 1488 1489 1489 1488 1488 1487 1486 1484 1481 1479 1477 1476 1474 1472 1470 1468 1466 1463 1460 1457 1454 1451 1448 1445 1442 1439 1436 1433 1429 1425 1422 1418 1415
1490 1497 1488 1499 1498 1510 1496 1479 1468 1468 1473 1475 1479 1482 1484 1485 1486 1487 1488 1488 1488 1487 1486 1484 1482 1479 1477 1475 1473 1471 1469 1466 1464 1461 1459 1455 1452 1448 1445 1441 1437 1434 1430 1427 1423 1418 1414 1411 1407
1483 1486 1498 1503 1508 1507 1499 1483 1487 1480 1480 1479 1481 1480 1481 1482 1483 1485 1486 1486 1486 1486 1485 1483 1481 1479 1478 1476 1473 1470 1468 1465 1462 1459 1456 1452 1449 1445 1440 1436 1432 1428 1424 1420 1416 1412 1408 1403 1399
1489 1491 1491 1496 1502 1510 1516 1500 1474 1473 1475 1476 1477 1478 1479 1480 1482 1483 1484 1485 1485 1484 1482 1481 1480 1478 1476 1473 1470 1468 1465 1462 1459 1456 1452 1449 1445 1441 1437 1432 1427 1423 1418 1414 1409 1404 1399 1395 1390
1481 1484 1489 1503 1498 1505 1512 1501 1472 1468 1469 1474 1476 1476 1478 1479 1480 1482 1484 1485 1483 1482 1480 1478 1477 1475 1473 1471 1469 1466 1463 1459 1456 1452 1448 1444 1439 1435 1430 1426 1421 1416 1412 1407 1402 1397 1393 1389 1385
Wind_Speed
19 15 5 3 3 4 3 7 2 4 4 2 3 7 7 4 1 3 4 7 5 8 7 12 13 15 13 11 8 8 7 5 6 8 6 4 2 1 0 2 3 4 3 2 2 8 6 6 8
18 10 4 1 4 2 5 4 5 2 9 4 6 7 1 1 1 2 5 9 8 7 6 11 12 13 10 9 8 7 8 6 6 8 6 3 1 0 1 2 1 4 2 3 3 8 6 6 10
13 8 3 2 3 5 4 2 5 4 6 3 3 3 4 4 1 2 0 6 10 8 6 7 14 12 11 10 8 6 6 7 7 6 6 4 1 2 3 5 3 3 3 2 7 9 5 6 6
14 4 2 2 5 7 5 4 6 4 5 2 4 4 6 5 3 2 2 6 8 9 8 5 10 10 12 10 10 6 6 9 9 8 7 5 4 4 4 5 1 2 2 2 4 8 7 6 8
9 3 2 2 6 7 4 9 19 5 4 4 3 5 5 6 6 2 3 6 8 9 8 7 9 12 13 13 10 9 7 8 9 9 10 10 8 7 5 4 4 2 3 3 5 7 9 6 6
6 3 3 3 6 8 6 16 21 11 3 6 7 8 4 5 5 3 4 6 5 7 8 11 12 15 16 15 13 11 10 9 9 11 10 12 12 9 7 3 3 4 4 4 4 5 7 8 7
2 3 4 4 5 9 7 11 8 14 0 5 6 5 4 9 7 3 5 8 7 7 9 11 10 14 18 17 16 13 12 12 13 12 9 10 12 11 7 5 5 7 6 7 5 6 7 9 10
2 4 4 3 5 7 10 12 5 7 4 2 1 5 5 12 9 7 7 9 10 10 11 12 9 10 16 16 15 13 13 13 13 10 8 8 8 9 6 7 8 8 8 8 8 8 9 11 11
3 3 3 5 3 4 17 10 13 9 2 0 2 4 4 10 11 10 11 10 11 12 10 11 10 8 9 11 11 10 11 10 9 9 8 8 8 8 9 9 10 11 11 11 12 11 11 12 12
4 4 6 6 7 9 13 10 16 7 8 3 5 4 7 11 13 12 12 10 9 9 10 12 11 10 10 11 9 9 8 10 9 10 10 9 8 9 10 7 8 9 12 13 13 12 12 13 14
5 5 7 22 23 20 11 14 15 12 3 10 12 16 15 15 15 14 12 12 10 9 10 13 15 14 14 13 9 9 10 11 10 11 10 8 7 9 8 10 12 15 14 13 14 14 14 14 16
5 15 17 26 28 15 10 14 16 12 12 17 11 8 17 16 16 15 15 15 15 14 13 13 16 18 17 16 15 12 12 11 11 10 10 9 9 10 10 12 13 13 13 13 14 14 15 16 18
5 15 22 24 24 25 19 12 11 22 20 20 13 7 10 14 14 14 15 16 16 17 15 16 17 19 19 19 17 15 14 12 12 12 12 12 13 14 14 15 15 14 15 14 15 15 16 18 20
12 17 14 14 18 23 9 13 7 15 18 10 10 10 9 14 15 14 15 16 17 18 19 19 20 21 21 21 19 18 17 16 14 14 15 15 16 17 18 18 18 18 18 17 18 19 18 19 21
21 7 8 11 16 8 4 6 11 29 24 11 9 10 13 14 13 15 14 16 17 18 20 23 23 21 23 24 23 21 21 19 18 16 16 17 19 20 20 21 22 22 21 21 21 22 23 23 23
4 2 2 7 8 14 9 7 16 25 12 13 8 8 10 18 17 18 18 20 20 20 21 22 23 22 23 24 27 27 24 24 23 21 20 21 22 23 24 24 24 25 25 25 25 25 27 28 28
2 4 6 8 10 7 6 6 9 14 7 8 9 9 5 17 11 3 11 16 19 22 21 20 22 23 24 25 26 27 28 28 26 25 24 25 25 26 28 29 29 30 30 31 30 30 31 31 31
6 4 6 7 3 6 5 8 11 20 2 6 4 17 17 14 12 6 6 8 7 14 20 23 24 25 26 25 25 27 28 30 30 31 30 30 31 32 33 34 34 35 34 36 35 35 34 34 35
5 4 7 3 1 4 6 7 12 8 10 19 18 20 19 15 11 9 8 9 6 10 9 16 23 29 30 28 28 28 31 32 32 34 35 36 36 37 37 37 38 39 38 38 39 38 38 39 38
9 7 6 3 5 4 4 7 3 4 7 18 19 17 16 13 13 15 16 16 15 12 7 9 12 9 19 30 30 29 29 31 31 31 33 34 35 35 36 36 38 39 40 40 41 41 41 43 41
7 2 1 3 5 3 2 7 3 5 16 18 16 15 12 12 13 14 16 17 16 17 17 13 6 11 8 9 15 26 28 28 28 31 31 31 32 32 32 32 33 35 37 40 42 42 42 44 43
4 4 3 3 5 3 5 4 3 6 5 5 13 14 12 11 12 13 16 17 17 16 15 16 14 6 8 8 8 9 18 23 25 27 28 28 27 29 29 30 31 30 32 35 38 42 42 41 44
4 1 2 1 1 3 3 3 6 6 5 6 9 15 12 12 13 14 13 14 14 14 14 14 13 12 9 4 12 15 16 19 22 20 22 22 22 21 24 26 27 30 30 32 33 36 38 40 42
5 1 2 3 3 1 6 6 4 9 9 6 8 17 14 11 11 11 11 10 12 12 12 13 14 15 14 14 12 11 10 11 13 13 14 16 16 16 15 17 21 25 31 32 31 31 32 38 42
4 5 1 2 1 5 3 2 8 12 12 12 12 19 16 10 8 8 8 8 8 10 11 11 12 13 14 15 16 18 18 18 19 19 19 19 18 18 17 16 18 21 24 28 31 34 33 33 37
5 7 4 3 3 4 2 5 6 12 18 26 25 21 17 10 6 5 5 5 7 10 11 12 13 13 14 15 15 15 15 16 16 16 17 16 17 17 17 16 15 16 20 23 26 29 33 36 38
4 4 4 2 2 2 3 4 5 7 9 16 21 19 14 9 4 3 3 4 6 8 11 13 14 14 15 15 16 17 17 18 19 19 19 20 21 23 24 24 24 24 22 19 20 24 28 32 36
3 1 2 2 3 2 5 3 3 6 8 7 9 18 15 12 9 4 2 3 5 8 9 7 8 10 13 16 18 19 18 19 19 21 22 23 23 24 25 26 26 26 26 27 28 29 29 29 31
2 1 1 2 4 4 2 5 5 7 8 10 10 17 17 14 9 4 1 3 4 4 1 4 8 13 17 19 19 20 21 23 24 25 24 24 26 29 31 31 32 31 31 30 29 29 30 32 32
2 4 5 4 1 1 4 5 3 5 8 16 17 16 12 11 8 4 4 3 2 3 2 7 13 17 19 19 19 21 22 24 25 25 26 30 35 37 38 37 35 35 35 33 32 31 31 32 31
Wind_Direction
343 348 341 349 65 71 262 255 108 348 155 124 43 71 127 86 136 223 185 236 232 239 231 204 190 200 211 229 247 263 271 240 171 157 124 179 291 154 212 245 171 152 121 111 147 121 162 144 143
346 3 11 320 92 96 266 291 331 259 238 122 86 107 110 131 49 214 176 226 240 230 204 200 196 210 220 234 255 255 270 200 149 138 155 199 151 220 169 161 235 192 182 252 171 129 137 156 170
352 348 326 99 176 196 224 128 16 332 269 160 106 90 115 137 161 236 356 194 227 221 216 232 210 216 226 245 250 270 203 179 151 176 155 198 235 230 311 309 278 223 223 224 186 195 155 167 165
347 7 269 87 258 269 252 284 206 277 239 212 101 93 109 143 197 275 317 194 201 204 233 219 200 226 235 243 249 272 228 189 170 175 187 194 214 234 285 333 240 150 183 207 204 220 239 209 205
353 295 21 305 279 264 269 261 310 258 230 201 162 166 132 187 213 243 226 169 180 201 218 238 236 243 238 248 249 264 219 208 201 189 194 180 194 228 242 297 276 209 216 213 216 224 233 247 203
342 21 23 301 295 299 279 231 257 244 159 161 166 135 178 187 202 176 157 153 178 212 216 236 252 248 233 246 256 255 239 209 197 216 203 207 226 257 250 270 262 241 250 241 248 242 238 242 223
132 81 239 288 285 302 289 273 222 224 98 231 178 103 175 199 185 164 145 153 181 225 227 245 264 229 231 238 251 251 225 209 205 224 225 229 240 248 266 242 245 257 269 274 274 267 252 240 230
316 103 295 270 267 273 320 354 242 64 72 91 65 168 205 200 180 176 160 161 189 225 247 253 254 238 237 244 251 246 226 218 214 236 239 252 253 262 258 256 242 253 267 275 278 273 259 245 234
244 63 258 255 275 310 336 8 357 347 358 19 72 187 176 171 185 183 175 185 201 214 246 251 253 239 238 237 240 236 232 233 232 236 248 253 262 270 254 264 264 259 265 271 269 270 261 251 240
163 146 233 239 305 316 305 341 318 332 335 293 123 170 182 191 199 200 195 202 214 218 225 245 254 253 245 236 232 235 245 242 242 245 251 262 272 266 254 285 291 282 284 279 272 268 261 250 240
211 203 241 275 285 298 300 317 328 330 306 296 243 218 211 210 208 211 213 221 233 236 233 227 242 247 251 250 243 243 250 245 242 246 250 250 264 269 291 300 302 288 283 288 273 267 261 251 243
239 253 257 276 286 294 298 310 312 296 281 296 287 245 228 222 224 228 229 230 228 233 240 235 230 236 242 243 245 244 245 244 238 243 249 257 268 283 293 294 290 289 282 288 278 268 261 252 245
250 257 262 269 282 296 275 288 274 289 282 291 261 249 239 239 244 248 247 245 242 242 244 247 239 236 237 241 242 241 244 247 250 250 257 268 272 277 284 286 286 292 292 286 281 276 263 258 250
270 284 286 301 295 288 260 264 292 280 273 304 239 229 244 252 261 267 259 261 257 255 255 254 252 244 238 240 245 247 248 250 252 255 261 265 269 272 273 278 283 286 287 285 280 280 275 269 262
262 274 304 277 280 258 282 315 260 269 272 267 271 247 230 265 264 268 281 274 272 271 262 257 256 252 244 246 249 248 247 251 253 257 260 263 265 266 271 275 280 283 279 279 277 276 273 267 259
311 340 310 261 244 259 183 262 269 292 239 228 251 273 279 252 253 260 267 271 277 271 264 264 258 253 252 251 253 250 249 251 258 261 263 263 265 266 267 269 277 277 273 273 274 274 272 269 265
317 249 227 306 216 206 176 259 264 304 273 253 260 269 56 96 88 112 251 260 257 259 269 266 260 260 256 254 254 253 254 256 260 263 265 266 267 267 266 267 270 271 268 269 270 271 269 269 267
223 235 262 232 265 139 187 259 276 288 318 268 127 102 86 73 51 21 326 293 265 250 247 249 260 264 263 262 258 257 256 260 262 263 265 265 267 268 269 270 271 271 269 270 269 269 271 270 271
283 283 264 257 248 119 226 258 270 266 85 90 92 87 79 67 48 24 22 24 12 249 241 244 243 244 256 258 255 256 260 266 269 274 276 278 280 281 280 279 278 277 275 274 273 271 270 270 268
240 269 306 288 176 128 242 273 278 130 99 113 101 88 84 76 64 56 53 51 46 40 24 263 249 255 247 249 262 264 273 273 278 286 284 283 285 286 285 283 282 281 279 278 275 272 269 269 267
210 196 284 279 347 301 60 311 189 51 118 108 101 99 92 89 82 68 58 54 50 47 43 35 1 250 273 263 260 261 263 269 280 290 296 297 296 294 293 292 289 286 283 282 281 277 273 270 272
182 203 167 336 52 241 131 263 273 169 130 122 129 121 113 102 89 73 62 57 55 54 51 48 40 21 239 253 261 262 267 278 289 293 294 296 299 300 301 301 298 292 288 286 285 280 275 271 265
198 133 210 154 69 12 266 101 246 151 179 183 162 140 125 99 85 74 66 65 67 66 61 57 53 56 53 334 275 275 276 281 287 291 290 292 292 293 296 299 300 295 294 295 290 283 278 272 268
135 108 349 44 102 327 236 149 243 193 180 186 178 151 136 109 85 74 65 65 68 62 52 46 43 45 42 39 37 30 15 0 348 342 329 323 318 314 308 309 307 297 290 292 294 292 280 276 272
89 69 359 16 28 225 228 85 239 208 185 173 164 155 140 121 80 68 63 61 58 42 35 34 34 37 37 36 35 31 27 22 19 15 12 8 2 355 339 313 301 302 304 304 297 290 285 284 276
165 165 167 175 196 261 21 233 256 192 170 161 155 142 130 118 84 65 60 53 42 34 33 28 25 29 28 26 23 18 12 8 5 1 355 350 345 345 344 344 341 318 304 301 297 295 291 288 285
206 181 186 140 317 59 231 271 19 53 118 136 150 146 141 152 155 112 89 64 39 33 27 19 14 14 12 5 2 357 351 346 343 338 331 327 325 327 325 324 321 317 314 312 308 297 292 290 290
141 187 87 354 188 262 294 265 239 179 169 157 150 160 158 164 175 160 131 64 47 42 29 21 21 7 353 350 349 347 343 338 332 327 327 328 328 331 330 329 328 325 318 311 306 302 298 297 295
67 329 203 141 144 167 276 279 287 175 185 176 165 168 174 180 172 178 125 73 83 32 8 355 346 344 340 342 343 342 341 336 333 331 331 330 329 329 329 328 326 325 325 322 318 310 304 303 303
196 196 164 128 273 127 148 273 270 136 141 149 174 184 179 179 181 173 122 128 99 98 341 331 332 333 338 342 338 338 334 329 328 328 328 327 326 325 326 326 324 323 323 321 318 317 317 321 322